FENGYUN 1C DEB

Satellite information

Favourite Embed

Satellite Type and Status

DEBRISIN ORBIT

Key statistics

Satellite FENGYUN 1C DEB at a glance.

Uptime

9714

Days in orbit

Revolutions

≈ 14.1

Per day

Orbit

SSO

Sun Synchronous Orbit

Inclination

98.7

Latest

Satellite identification and parameters

Extended collection of information and parameters for FENGYUN 1C DEB.

Object identification

Identified? True

Debris? True

Object name: FENGYUN 1C DEB

International designator: 1999-025DVH

Object number (NORAD): 36232

Object ID (CCSDS): 36232

Country: PEOPLES REPUBLIC OF CHINA (PRC)

Current information (Y/N): Y

RCS size: SMALL

Orbital parameters

Period: 101.947 minutes

Inclination: 98.7048 deg

SMA: 7228.974 km

Apoapsis: 936.935 km

Periapsis: 764.744 km

RAAN: 328.8206 deg

Eccentricy: 0.01190984

Argument of periapsis: 33.8306 deg

Mean anomaly: 327.0393 deg

Mean motion: 14.12497625 rev/day

Mean motion (dot): 0.00001001 rev/day2

B* drag term: 0.00052834045 1/REarth

Two-line elements (TLE)

Creation date: Dec. 11, 2025, 3:54 a.m.

Reference frame: TEME

Reference center: EARTH

Epoch: Dec. 10, 2025, 5:14 p.m. UTC

TLE line 0: 0 FENGYUN 1C DEB

TLE line 1: 1 36232U 99025DVH 25344.71826298 .00001001 00000-0 52834-3 0 9999

TLE line 2: 2 36232 98.7048 328.8206 0119098 33.8306 327.0393 14.12497625617073

Live tracking on map

Real-time ground track for satellite FENGYUN 1C DEB.

In-orbit conjunctions

A list of the most updated potential collisions computed for object FENGYUN 1C DEB.

Target Orbit TCA Probability of collision Miss distance Type
FENGYUN 1C DEB SSO 2025-05-28 00:58:51 0.0001496767 189.0 (m) DEBRIS
IRIDIUM 29 LEO 2025-03-07 10:49:56 0.0007198399 110.0 (m) PAYLOAD

Associated space launch

Chinese polar orbiting meteorological satellite

FENGYUN 1C DEB was lifted into orbit during the mission ‘Long March 4B | Feng Yun 1C’, on board a Long March 4B space rocket.

The launch took place on May 10, 1999, 1:33 a.m. from Launch Complex 7.

For more information about the launch, click the button.

Launch to space Long March 4B | Feng Yun 1C
Long March 4B | Feng Yun 1C

Agency: N/A

Status: Launch Successful

Launch date: May 10, 1999, 1:33 a.m. UTC

Rocket: Long March 4B

Launch pad: Launch Complex 7

Location: Taiyuan Satellite Launch Center, People's Republic of China

...

Latest news about this satellite

There are no fresh news available about this satellite. Check back as we update our databases every day.


Newsletter sign-up

Weekly statistics, charts and insights to help you stay on top of the space industry.